User: anonymous   Login
Location: Caltech
(34.1382°N, 118.1253°W)
Time: 10:56:04
(UTC-08:00)
Language:

SL-16 R/B - Orbit

View from above orbital plane
View from above orbital plane
View from above satellite
View from above satellite

Ground track
Ground track

The orbit data is extracted from the following two-line orbital elements,

1 31793U 07029B   16039.17086851 -.00000243  00000-0 -10189-3 0  9999
2 31793  70.9777 348.9233 0002623 262.6539 223.8108 14.14354396444725
Epoch (UTC): 08 February 2016 04:06:03
Eccentricity: 0.0002623
inclination: 70.9777°
perigee height: 842 km
apogee height: 846 km
right ascension of ascending node: 348.9233°
argument of perigee: 262.6539°
revolutions per day: 14.14354396
mean anomaly at epoch: 223.8108°
orbit number at epoch: 44472

The dashed part of the orbit path shows where the satellite is in the earth's shadow,  

DLR